Location: Madison
(43.0730°N, 89.3819°W)
Time: 00:40:15
(UTC-06:00)

ISS - Pass Details

Date: 01 February 2019
Orbit: 403 x 411 km, 51.6° (Epoch: 17 February)

Event Time Altitude Azimuth Distance (km) Brightness Sun altitude
Rises 18:04:53 0° 295° (WNW) 2,335 0.9 -10.4°
Reaches altitude 10° 18:07:26 10° 315° (NW) 1,476 -0.5 -10.8°
Maximum altitude 18:09:49 18° 1° (N) 1,081 -1.8 -11.3°
Enters shadow 18:11:34 13° 38° (NE) 1,311 -1.7 -11.6°
